Kingsville NAS, TX

6:02 PM CDT on September 25, 2017 (GMT -0500)
Kingsville Naval Air Station

Weather History for KNQI - October, 2013

Change the Weather History Date:

Wednesday, October 2, 2013

  Actual Average Record
Temperature  
Mean Temperature 84 °F -  
Max Temperature 93 °F 84 °F 93 °F (2000)
Min Temperature 75 °F 66 °F 57 °F (2001)
Cooling Degree Days 19    
Growing Degree Days 34 (Base 50)    
Moisture  
Dew Point 75 °F    
Average Humidity 79    
Maximum Humidity 97    
Minimum Humidity 54    
Precipitation  
Precipitation 0.00 in - - ()
Sea Level Pressure  
Sea Level Pressure 29.87 in    
Wind  
Wind Speed 9 mph (SE)    
Max Wind Speed 15 mph    
Max Gust Speed 23 mph    
Visibility 10 miles    
Events      
Averages and records for this station are not official NWS values.
T = Trace of Precipitation, MM = Missing Value Source: NWS Daily Summary

Daily Weather History Graph

Daily Weather History Graph

Search for Another Location

Airport or City:

Trip Planner

Search our weather history database for the weather conditions in past years. The results will help you decide how hot, cold, wet, or windy it might be!

Date:

Astronomy

Oct. 02, 2013 Rise Set
Actual Time 7:24 AM CDT 7:15 PM CDT
Civil Twilight 7:01 AM CDT 7:39 PM CDT
Nautical Twilight 6:34 AM CDT 8:06 PM CDT
Astronomical Twilight 6:07 AM CDT 8:33 PM CDT
Moon 5:09 AM CDT (10/2) 5:45 PM CDT (10/2)
Length of Visible Light 12h 37m
Length of Day
11h 51m
Waning Crescent, 6% of the Moon is Illuminated
Oct 2
Waning Crescent
Oct 4
New
Oct 11
First Quarter
Oct 18
Full
Oct 26
Last Quarter

Hourly Weather History & Observations

Time (CDT) Temp. Heat Index Dew Point Humidity Pressure Visibility Wind Dir Wind Speed Gust Speed Precip Events Conditions
12:56 AM 80.1 °F 85.8 °F 77.0 °F 90% 29.88 in - SSE 11.5 mph - N/A   Clear
1:56 AM 79.0 °F - 75.9 °F 90% 29.88 in - South 8.1 mph - N/A   Clear
2:56 AM 77.0 °F - 75.0 °F 94% 29.87 in - SSE 4.6 mph - N/A   Clear
3:56 AM 77.0 °F - 75.0 °F 94% 29.86 in - SE 5.8 mph - N/A   Clear
4:56 AM 75.9 °F - 75.0 °F 97% 29.86 in - ESE 4.6 mph - N/A   Clear
5:56 AM 75.9 °F - 75.0 °F 97% 29.87 in - SE 3.5 mph - N/A   Clear
6:56 AM 75.0 °F - 73.9 °F 96% 29.88 in 10.0 mi ESE 4.6 mph - N/A   Scattered Clouds
7:56 AM 75.0 °F - 73.9 °F 96% 29.89 in 10.0 mi SE 3.5 mph - N/A   Scattered Clouds
8:56 AM 81.0 °F 87.9 °F 77.0 °F 88% 29.90 in 10.0 mi SE 4.6 mph - N/A   Scattered Clouds
9:56 AM 84.9 °F 94.1 °F 75.9 °F 74% 29.92 in 10.0 mi SSE 9.2 mph - N/A   Mostly Cloudy
10:56 AM 87.1 °F 96.3 °F 75.0 °F 67% 29.92 in 10.0 mi South 10.4 mph - N/A   Mostly Cloudy
11:56 AM 90.0 °F 99.0 °F 73.9 °F 59% 29.91 in 10.0 mi South 12.7 mph - N/A   Mostly Cloudy
12:56 PM 90.0 °F 97.9 °F 73.0 °F 57% 29.89 in 10.0 mi South 10.4 mph - N/A   Mostly Cloudy
1:56 PM 91.9 °F 101.3 °F 73.9 °F 55% 29.87 in 10.0 mi East 6.9 mph - N/A   Mostly Cloudy
2:56 PM 93.0 °F 103.2 °F 73.9 °F 54% 29.84 in 10.0 mi South 9.2 mph - N/A   Scattered Clouds
3:56 PM 91.9 °F 103.9 °F 75.9 °F 59% 29.83 in 10.0 mi SE 15.0 mph - N/A   Scattered Clouds
4:56 PM 90.0 °F 101.3 °F 75.9 °F 63% 29.83 in 10.0 mi ESE 15.0 mph 23.0 mph N/A   Scattered Clouds
5:56 PM 88.0 °F 98.5 °F 75.9 °F 67% 29.83 in 10.0 mi ESE 15.0 mph 21.9 mph N/A   Scattered Clouds
6:56 PM 84.9 °F 94.1 °F 75.9 °F 74% 29.84 in 10.0 mi SE 13.8 mph - N/A   Partly Cloudy
7:56 PM 82.0 °F 89.4 °F 75.9 °F 82% 29.85 in 10.0 mi SE 11.5 mph - N/A   Partly Cloudy
8:56 PM 82.0 °F 89.4 °F 75.9 °F 82% 29.87 in 10.0 mi SE 8.1 mph - N/A   Clear
9:56 PM 81.0 °F 87.9 °F 77.0 °F 88% 29.89 in 10.0 mi SSE 9.2 mph - N/A   Scattered Clouds
10:56 PM 80.1 °F 85.4 °F 75.9 °F 87% 29.90 in 10.0 mi SSE 6.9 mph - N/A   Partly Cloudy
11:56 PM 79.0 °F - 75.9 °F 90% 29.90 in 10.0 mi SSE 6.9 mph - N/A   Clear